Skip Page Navigation
NASA JPL Caltech
NASA Logo - Jet Propulsion Laboratory + View the NASA Portal
+ Center for Near-Earth Object Studies
JPL Home Earth Solar System Stars & Galaxies Technology
JPL Solar System Dynamics
BODIES ORBITS EPHEMERIDES TOOLS PHYSICAL DATA DISCOVERY FAQ SITE MAP
IMPORTANT: The SSD Announcement email list is now available. Major changes are coming in the near future, including possible hostname and/or URL changes. To be notified of such changes, subscribe to this email list.

Please visit this page for more details.


JPL Small-Body Database Browser
Search: [ help ]  
266971 (2010 VE100)
Classification: Main-belt Asteroid          SPK-ID: 2266971
Ephemeris | Orbit Diagram | Orbital Elements | Mission Design | Physical Parameters | Discovery Circumstances | Close-Approach Data ]

[ show orbit diagram ]
Orbital Elements at Epoch 2458600.5 (2019-Apr-27.0) TDB
Reference: JPL 13 (heliocentric ecliptic J2000)
 Element Value Uncertainty (1-sigma)   Units 
e .003757919371434915 7.2672e-08  
a 3.110751588723618 5.8149e-08 au
q 3.099061635068632 2.5774e-07 au
i 9.188596264617818 6.6068e-06 deg
node 241.1274304085385 5.5693e-05 deg
peri 149.9862771126304 0.0011962 deg
M 221.9066391638782 0.0011967 deg
tp 2459369.217420122933
(2021-Jun-03.71742012)
0.0066674 TDB
period 2003.994033954079
5.49
5.6191e-05
1.538e-07
d
yr
n .1796412533672489 5.037e-09 deg/d
Q 3.122441542378605 5.8368e-08 au
  Orbit Determination Parameters
   # obs. used (total)      218  
   data-arc span      6714 days (18.38 yr)  
   first obs. used      2001-02-17  
   last obs. used      2019-07-07  
   planetary ephem.      DE431  
   SB-pert. ephem.      SB431-N16  
   condition code      0  
   norm. resid. RMS      .62286  
   source      ORB  
   producer      Otto Matic  
   solution date      2019-Sep-24 04:37:05  

Additional Information
 Earth MOID = 2.10461 au 
 Jupiter MOID = 1.90585 au 
 T_jup = 3.199 
[ hide covariance matrix ]
Orbital Elements at Epoch 2456791.5 (2014-May-14.0) TDB
Reference: JPL 13 (heliocentric ecliptic J2000)
 Element Value Uncertainty (1-sigma)   Units 
e .006697942373018031 7.4546e-08  
q 3.086268846352377 2.6456e-07 au
tp 2457349.857394740784
(2015-Nov-23.35739474)
0.0036401 TDB
node 241.1613281196672 5.5744e-05 deg
peri 146.7812415840488 0.00065744 deg
i 9.185930285893365 6.6058e-06 deg
  Orbit Determination Parameters
   # obs. used (total)      218  
   data-arc span      6714 days (18.38 yr)  
   first obs. used      2001-02-17  
   last obs. used      2019-07-07  
   planetary ephem.      DE431  
   SB-pert. ephem.      SB431-N16  
   condition code      0  
   norm. resid. RMS      .62286  
   source      ORB  
   producer      Otto Matic  
   solution date      2019-Sep-24 04:37:05  

Additional Information
 Jupiter MOID = 1.90585 au 
 T_jup = 3.199 
Orbit Covariance (6×6)
  e q tp node peri i
e 5.557167478622093E-15 -1.935316043434099E-14 -9.512472896829413E-11 -1.367059848268068E-14 -1.706916411002039E-11 3.776159830646881E-15
q -1.935316043434099E-14 6.999019896115941E-14 3.492458642058382E-10 4.560688162771828E-14 6.253632764078955E-11 -1.008085013099859E-14
tp -9.512472896829413E-11 3.492458642058382E-10 1.325052523213275E-5 -5.192541355479261E-10 2.384682765412191E-6 -3.550301465582108E-10
node -1.367059848268068E-14 4.560688162771828E-14 -5.192541355479261E-10 3.107428862344678E-9 -3.160292833199229E-9 1.597047715579224E-11
peri -1.706916411002039E-11 6.253632764078955E-11 2.384682765412191E-6 -3.160292833199229E-9 4.322327892913355E-7 -7.973392308082007E-11
i 3.776159830646881E-15 -1.008085013099859E-14 -3.550301465582108E-10 1.597047715579224E-11 -7.973392308082007E-11 4.363646190206255E-11

Ephemeris | Orbit Diagram | Orbital Elements | Mission Design | Physical Parameters | Discovery Circumstances | Close-Approach Data ]

Physical Parameter Table
Parameter Symbol Value Units Sigma Reference Notes
absolute magnitude H 15.3   n/a MPO437228  

266971 (2010 VE100)          Discovered 2001-Feb-17 by NEAT at Palomar
Reference: 20110218/Numbers.arcLast Updated: 2011-02-22

[ show close-approach data ]
Alternate Designations
 2010 VE100 = 2009 TB2 
Ephemeris | Orbit Diagram | Orbital Elements | Mission Design | Physical Parameters | Discovery Circumstances | Close-Approach Data ]
ABOUT SSD CREDITS/AWARDS PRIVACY/COPYRIGHT GLOSSARY LINKS
FirstGov 2020-Jan-22 12:15 UT
(server date/time)  
NASA Home Page
Site Manager:   Ryan S. Park
Webmaster  Alan B. Chamberlin